N6ZQK Weather Reports


Display with metric or nautical units.
time (UTC)temp
F
wind
direction
speed
MPH
gust
MPH
rain 1hr
in
rain 24hr
in
rain mn
in
humidity
%
barometer
mb
20260904005403 60 213 1.0 5.0 0.00 0.00 0.00 81 1010.6
20260904004803 60 222 3.0 10.0 0.00 0.00 0.00 80 1010.6
20260904004203 61 236 2.0 9.0 0.00 0.00 0.00 80 1010.6
20260904003603 61 239 3.0 9.0 0.00 0.00 0.00 80 1010.7
20260904003003 61 244 1.0 6.0 0.00 0.00 0.00 80 1010.7
20260904002617 61 207 1.0 4.0 0.00 0.00 0.00 80 1010.6
20260904001803 61 192 2.0 7.0 0.00 0.00 0.00 79 1010.7
20260904001203 61 207 3.0 6.0 0.00 0.00 0.00 79 1010.6
20260904000603 61 212 2.0 6.0 0.00 0.00 0.00 79 1010.7
20260904000003 61 216 1.0 4.0 0.00 0.00 0.00 79 1010.7
20260903235403 61 216 1.0 5.0 0.00 0.00 0.00 79 1010.7
20260903234804 61 214 1.0 5.0 0.00 0.00 0.00 79 1010.8
20260903234203 61 230 1.0 6.0 0.00 0.00 0.00 78 1010.8
20260903233817 61 229 1.0 6.0 0.00 0.00 0.00 78 1010.8
20260903233003 61 260 1.0 4.0 0.00 0.00 0.00 78 1010.9
20260903232403 61 266 1.0 4.0 0.00 0.00 0.00 77 1011.0
20260903231803 62 244 0.0 4.0 0.00 0.00 0.00 77 1010.9
20260903231203 62 233 1.0 4.0 0.00 0.00 0.00 77 1010.9
20260903230603 62 237 2.0 7.0 0.00 0.00 0.00 76 1011.0
20260903230003 62 235 3.0 10.0 0.00 0.00 0.00 75 1011.1
20260903225403 62 220 2.0 9.0 0.00 0.00 0.00 75 1011.1
20260903224803 62 230 2.0 9.0 0.00 0.00 0.00 74 1011.1
20260903224203 62 223 2.0 9.0 0.00 0.00 0.00 74 1011.2
20260903223603 62 220 3.0 10.0 0.00 0.00 0.00 73 1011.1
20260903223003 62 233 3.0 10.0 0.00 0.00 0.00 73 1011.2
20260903222618 62 226 3.0 9.0 0.00 0.00 0.00 73 1011.3
20260903221803 62 214 4.0 12.0 0.00 0.00 0.00 73 1011.4
20260903221203 63 207 5.0 12.0 0.00 0.00 0.00 71 1011.4
20260903220816 63 203 4.0 12.0 0.00 0.00 0.00 71 1011.4
20260903220003 63 238 2.0 7.0 0.00 0.00 0.00 71 1011.5
20260903215618 63 231 3.0 12.0 0.00 0.00 0.00 71 1011.6
20260903214803 63 234 4.0 13.0 0.00 0.00 0.00 71 1011.6
20260903214203 63 238 5.0 14.0 0.00 0.00 0.00 70 1011.6
20260903213603 63 234 6.0 14.0 0.00 0.00 0.00 69 1011.7
20260903213003 63 234 4.0 14.0 0.00 0.00 0.00 68 1011.7
20260903212403 63 235 4.0 14.0 0.00 0.00 0.00 68 1011.6
20260903211803 63 239 4.0 14.0 0.00 0.00 0.00 67 1011.6
20260903211203 63 229 4.0 12.0 0.00 0.00 0.00 67 1011.6
20260903210818 63 218 3.0 12.0 0.00 0.00 0.00 67 1011.6
20260903210003 63 224 4.0 13.0 0.00 0.00 0.00 67 1011.5
20260903205617 63 235 5.0 13.0 0.00 0.00 0.00 66 1011.4
20260903204803 63 237 4.0 9.0 0.00 0.00 0.00 67 1011.5
20260903204203 63 236 5.0 14.0 0.00 0.00 0.00 67 1011.5
20260903203603 63 217 5.0 14.0 0.00 0.00 0.00 67 1011.5
20260903203004 63 211 4.0 15.0 0.00 0.00 0.00 67 1011.5
20260903202403 63 210 5.0 15.0 0.00 0.00 0.00 66 1011.6
20260903201803 63 218 5.0 10.0 0.00 0.00 0.00 66 1011.6
20260903201418 63 225 3.0 10.0 0.00 0.00 0.00 65 1011.8
20260903200603 64 222 4.0 15.0 0.00 0.00 0.00 63 1011.8
20260903200003 64 214 5.0 15.0 0.00 0.00 0.00 63 1011.9
20260903195617 64 219 5.0 15.0 0.00 0.00 0.00 61 1011.9
20260903194803 64 221 4.0 12.0 0.00 0.00 0.00 61 1012.0
20260903194203 64 201 4.0 14.0 0.00 0.00 0.00 62 1012.1
20260903193603 64 187 5.0 13.0 0.00 0.00 0.00 61 1012.0
20260903193003 64 183 6.0 13.0 0.00 0.00 0.00 62 1012.0
20260903192403 63 200 6.0 19.0 0.00 0.00 0.00 62 1012.2
20260903191803 63 225 4.0 16.0 0.00 0.00 0.00 61 1012.2
20260903191203 63 191 4.0 13.0 0.00 0.00 0.00 62 1012.3
20260903190603 63 182 7.0 16.0 0.00 0.00 0.00 61 1012.5
20260903190004 63 196 7.0 18.0 0.00 0.00 0.00 60 1012.4
20260903185619 63 206 7.0 18.0 0.00 0.00 0.00 61 1012.5
20260903184803 63 204 5.0 14.0 0.00 0.00 0.00 60 1012.6
20260903184203 63 185 4.0 13.0 0.00 0.00 0.00 61 1012.6
20260903183603 63 185 4.0 15.0 0.00 0.00 0.00 61 1012.5
20260903183003 62 190 5.0 15.0 0.00 0.00 0.00 61 1012.8
20260903182403 62 186 4.0 14.0 0.00 0.00 0.00 61 1013.1
20260903181803 62 178 6.0 14.0 0.00 0.00 0.00 61 1013.0
20260903181204 62 188 5.0 13.0 0.00 0.00 0.00 61 1013.0
20260903180603 61 203 4.0 12.0 0.00 0.00 0.00 61 1013.0
20260903180003 61 184 4.0 12.0 0.00 0.00 0.00 61 1012.7
20260903175403 61 155 3.0 9.0 0.00 0.00 0.00 60 1012.8
20260903174804 60 171 2.0 7.0 0.00 0.00 0.00 61 1012.7
20260903174203 60 166 3.0 9.0 0.00 0.00 0.00 61 1012.9
20260903173603 60 153 2.0 8.0 0.00 0.00 0.00 61 1012.9
20260903173003 60 145 1.0 6.0 0.00 0.00 0.00 62 1012.9
20260903172403 59 157 2.0 10.0 0.00 0.00 0.00 61 1012.9
20260903171803 59 165 2.0 10.0 0.00 0.00 0.00 63 1013.0
20260903171203 59 178 3.0 9.0 0.00 0.00 0.00 62 1013.1
20260903170817 59 187 3.0 9.0 0.00 0.00 0.00 61 1013.1
20260903170218 59 182 2.0 7.0 0.00 0.00 0.00 63 1013.1
20260903165403 59 176 2.0 5.0 0.00 0.00 0.00 61 1013.1
20260903164803 59 176 1.0 6.0 0.00 0.00 0.00 62 1013.0
20260903164203 59 173 1.0 6.0 0.00 0.00 0.00 62 1013.1
20260903163604 59 170 2.0 6.0 0.00 0.00 0.00 63 1013.2
20260903163003 58 165 2.0 6.0 0.00 0.00 0.00 62 1013.2
20260903162403 58 163 3.0 10.0 0.00 0.00 0.00 64 1013.3
20260903161803 58 165 3.0 10.0 0.00 0.00 0.00 63 1013.3
20260903161203 58 165 2.0 7.0 0.00 0.00 0.00 65 1013.3
20260903160603 58 167 1.0 7.0 0.00 0.00 0.00 63 1013.3
20260903160003 58 156 3.0 10.0 0.00 0.00 0.00 63 1013.4
20260903155403 58 149 2.0 10.0 0.00 0.00 0.00 65 1013.4
20260903154803 58 142 2.0 7.0 0.00 0.00 0.00 67 1013.4
20260903154203 58 137 2.0 7.0 0.00 0.00 0.00 67 1013.4
20260903153603 58 135 2.0 7.0 0.00 0.00 0.00 68 1013.4
20260903153004 58 130 2.0 9.0 0.00 0.00 0.00 69 1013.4
20260903152403 58 130 3.0 9.0 0.00 0.00 0.00 68 1013.3
20260903151803 57 132 3.0 9.0 0.00 0.00 0.00 69 1013.3
20260903151203 57 123 2.0 8.0 0.00 0.00 0.00 70 1013.2
20260903150603 57 128 3.0 10.0 0.00 0.00 0.00 71 1013.2
20260903150003 57 134 3.0 10.0 0.00 0.00 0.00 71 1013.0
20260903145403 57 129 3.0 9.0 0.00 0.00 0.00 71 1013.1
20260903145017 57 126 3.0 9.0 0.00 0.00 0.00 71 1013.1
20260903144203 56 125 3.0 9.0 0.00 0.00 0.00 71 1013.1
20260903143603 56 125 3.0 9.0 0.00 0.00 0.00 71 1013.2
20260903143004 56 126 3.0 10.0 0.00 0.00 0.00 71 1013.1
20260903142403 56 127 3.0 10.0 0.00 0.00 0.00 71 1013.1
20260903141803 56 128 2.0 6.0 0.00 0.00 0.00 72 1013.1
20260903141418 56 129 2.0 6.0 0.00 0.00 0.00 72 1013.1
20260903140818 56 130 3.0 7.0 0.00 0.00 0.00 72 1013.1
20260903140003 56 133 4.0 7.0 0.00 0.00 0.00 72 1012.7
20260903135403 56 135 3.0 7.0 0.00 0.00 0.00 73 1012.6
20260903134803 56 136 2.0 6.0 0.00 0.00 0.00 73 1012.6
20260903134203 56 136 2.0 6.0 0.00 0.00 0.00 74 1012.5
20260903133603 56 136 3.0 9.0 0.00 0.00 0.00 74 1012.5
20260903133217 56 136 2.0 9.0 0.00 0.00 0.00 74 1012.5
20260903132403 56 136 2.0 7.0 0.00 0.00 0.00 75 1012.5
20260903131803 56 137 2.0 5.0 0.00 0.00 0.00 75 1012.5
20260903131203 56 137 2.0 6.0 0.00 0.00 0.00 75 1012.5
20260903130817 56 137 2.0 6.0 0.00 0.00 0.00 75 1012.5
20260903130004 56 138 1.0 5.0 0.00 0.00 0.00 75 1012.5
20260903125403 56 138 1.0 6.0 0.00 0.00 0.00 76 1012.5
20260903125018 56 138 2.0 7.0 0.00 0.00 0.00 76 1012.6
20260903124417 56 138 3.0 7.0 0.00 0.00 0.00 76 1012.7
20260903123603 56 141 3.0 7.0 0.00 0.00 0.00 76 1012.6
20260903123003 56 143 2.0 6.0 0.00 0.00 0.00 76 1012.5
20260903122404 56 144 2.0 6.0 0.00 0.00 0.00 75 1012.6
20260903121803 56 145 2.0 6.0 0.00 0.00 0.00 76 1012.7
20260903121203 56 145 2.0 6.0 0.00 0.00 0.00 76 1012.7
20260903120603 56 145 2.0 6.0 0.00 0.00 0.00 77 1012.7
20260903120003 56 146 3.0 6.0 0.00 0.00 0.00 78 1012.6
20260903115403 56 148 3.0 6.0 0.00 0.00 0.00 78 1012.7
20260903114803 56 151 3.0 6.0 0.00 0.00 0.00 78 1012.7
20260903114203 56 152 2.0 6.0 0.00 0.00 0.00 78 1012.7
20260903113603 56 153 2.0 6.0 0.00 0.00 0.00 78 1012.8
20260903113003 56 153 2.0 5.0 0.00 0.00 0.00 78 1012.8
20260903112403 56 153 1.0 5.0 0.00 0.00 0.00 78 1012.7
20260903111803 56 153 1.0 4.0 0.00 0.00 0.00 78 1012.7
20260903111417 56 153 1.0 4.0 0.00 0.00 0.00 78 1012.8
20260903110603 56 154 2.0 7.0 0.00 0.00 0.00 78 1012.9
20260903110003 56 155 2.0 5.0 0.00 0.00 0.00 78 1012.9
20260903105404 56 155 2.0 5.0 0.00 0.00 0.00 78 1012.9
20260903104803 56 155 2.0 7.0 0.00 0.00 0.00 78 1012.9
20260903104203 56 156 2.0 7.0 0.00 0.00 0.00 78 1012.8
20260903103819 56 156 2.0 6.0 0.00 0.00 0.00 78 1012.9
20260903103003 56 157 2.0 5.0 0.00 0.00 0.00 78 1012.8
20260903102617 56 157 2.0 6.0 0.00 0.00 0.00 77 1012.9
20260903101803 56 157 3.0 6.0 0.00 0.00 0.00 77 1013.0
20260903101203 56 157 2.0 6.0 0.00 0.00 0.00 77 1012.9
20260903100603 56 157 2.0 5.0 0.00 0.00 0.00 77 1013.0
20260903100004 56 158 2.0 6.0 0.00 0.00 0.00 77 1013.0
20260903095403 56 159 2.0 6.0 0.00 0.00 0.00 77 1013.1
20260903094803 56 159 2.0 7.0 0.00 0.00 0.00 77 1013.1
20260903094418 56 158 2.0 7.0 0.00 0.00 0.00 77 1013.1
20260903093603 57 156 1.0 5.0 0.00 0.00 0.00 77 1013.1
20260903093003 57 156 1.0 5.0 0.00 0.00 0.00 77 1013.2
20260903092403 57 156 1.0 4.0 0.00 0.00 0.00 77 1013.3
20260903091803 57 156 1.0 4.0 0.00 0.00 0.00 77 1013.3
20260903091203 57 156 1.0 4.0 0.00 0.00 0.00 78 1013.4
20260903090603 57 156 0.0 4.0 0.00 0.00 0.00 78 1013.5
20260903090004 57 156 1.0 4.0 0.00 0.00 0.00 79 1013.4
20260903085617 57 156 1.0 5.0 0.00 0.00 0.00 79 1013.4
20260903084803 57 156 0.0 2.0 0.00 0.00 0.00 79 1013.4
20260903084203 57 156 0.0 3.0 0.00 0.00 0.00 79 1013.4
20260903083603 57 156 0.0 5.0 0.00 0.00 0.00 79 1013.4
20260903083003 57 156 0.0 4.0 0.00 0.00 0.00 79 1013.5
20260903082403 57 156 1.0 5.0 0.00 0.00 0.00 80 1013.5
20260903081803 56 156 1.0 5.0 0.00 0.00 0.00 80 1013.4
20260903081203 56 156 1.0 4.0 0.00 0.00 0.00 81 1013.6
20260903080603 56 156 1.0 6.0 0.00 0.00 0.00 81 1013.6
20260903080003 56 157 1.0 6.0 0.00 0.00 0.00 81 1013.6
20260903075618 56 157 1.0 5.0 0.00 0.00 0.00 81 1013.7
20260903074804 56 157 1.0 5.0 0.00 0.00 0.00 81 1013.6
20260903074203 56 157 1.0 4.0 0.00 0.00 0.00 81 1013.7
20260903073604 56 157 1.0 4.0 0.00 0.00 0.00 82 1013.8
20260903073003 56 157 1.0 4.0 0.00 0.00 0.00 82 1013.8
20260903072618 56 157 1.0 4.0 0.00 0.00 0.00 82 1013.8
20260903071803 56 176 2.0 6.0 0.00 0.00 0.00 82 1013.8
20260903071203 56 196 1.0 5.0 0.00 0.00 0.00 82 1013.9
20260903070603 56 201 1.0 4.0 0.00 0.00 0.00 83 1013.9
20260903070004 55 201 1.0 4.0 0.00 0.00 0.00 82 1014.3
20260903065403 56 201 0.0 3.0 0.00 0.00 0.00 82 1014.3
20260903064803 56 201 0.0 3.0 0.00 0.00 0.00 82 1014.4
20260903064203 56 201 1.0 3.0 0.00 0.00 0.00 82 1014.3
20260903063817 56 201 1.0 3.0 0.00 0.00 0.00 81 1014.3
20260903063219 56 201 1.0 3.0 0.00 0.00 0.00 81 1014.4
20260903062403 56 201 1.0 4.0 0.00 0.00 0.00 81 1014.5
20260903061803 56 201 2.0 4.0 0.00 0.00 0.00 80 1014.5
20260903061203 56 201 1.0 4.0 0.00 0.00 0.00 80 1014.3
20260903060816 57 201 0.0 4.0 0.00 0.00 0.00 80 1014.3
20260903060003 57 201 0.0 2.0 0.00 0.00 0.00 80 1014.6
20260903055403 57 201 0.0 3.0 0.00 0.00 0.00 79 1014.7
20260903054803 57 201 1.0 3.0 0.00 0.00 0.00 79 1014.7
20260903054203 57 201 1.0 5.0 0.00 0.00 0.00 79 1014.8
20260903053603 57 201 0.0 3.0 0.00 0.00 0.00 78 1014.8
20260903053218 57 201 0.0 3.0 0.00 0.00 0.00 78 1014.9
20260903052617 57 201 0.0 3.0 0.00 0.00 0.00 78 1014.9
20260903051804 58 201 0.0 2.0 0.00 0.00 0.00 78 1014.7
20260903051203 58 201 0.0 2.0 0.00 0.00 0.00 77 1014.8
20260903050603 58 201 0.0 2.0 0.00 0.00 0.00 77 1014.8
20260903050003 58 201 0.0 2.0 0.00 0.00 0.00 77 1015.0
20260903045403 58 201 0.0 2.0 0.00 0.00 0.00 76 1015.0
20260903044803 58 201 0.0 2.0 0.00 0.00 0.00 76 1015.0
20260903044418 58 201 0.0 3.0 0.00 0.00 0.00 75 1015.0
20260903043818 58 201 0.0 4.0 0.00 0.00 0.00 75 1015.0
20260903043003 58 201 0.0 3.0 0.00 0.00 0.00 75 1014.9
20260903042403 59 201 0.0 2.0 0.00 0.00 0.00 75 1014.9
20260903041804 59 201 0.0 2.0 0.00 0.00 0.00 74 1014.9
20260903041204 59 201 0.0 2.0 0.00 0.00 0.00 74 1014.8
20260903040604 59 201 0.0 2.0 0.00 0.00 0.00 74 1014.7
20260903040004 59 201 0.0 2.0 0.00 0.00 0.00 74 1014.9
20260903035403 59 0 0.0 0.0 0.00 0.00 0.00 73 1014.8
20260903034804 60 0 0.0 0.0 0.00 0.00 0.00 73 1014.7
20260903034203 60 0 0.0 0.0 0.00 0.00 0.00 73 1014.7
20260903033818 60 0 0.0 0.0 0.00 0.00 0.00 73 1014.6
20260903033003 60 0 0.0 0.0 0.00 0.00 0.00 73 1014.6
20260903032403 60 201 0.0 2.0 0.00 0.00 0.00 73 1014.5
20260903031803 60 201 0.0 2.0 0.00 0.00 0.00 72 1014.5
20260903031204 60 201 1.0 4.0 0.00 0.00 0.00 72 1014.2
20260903030603 61 205 1.0 6.0 0.00 0.00 0.00 72 1014.1
20260903030004 61 221 0.0 6.0 0.00 0.00 0.00 71 1014.5
20260903025404 61 248 0.0 2.0 0.00 0.00 0.00 71 1014.5
20260903024803 62 0 0.0 0.0 0.00 0.00 0.00 70 1014.3
20260903024203 62 248 0.0 1.0 0.00 0.00 0.00 70 1014.4
20260903023604 62 248 0.0 4.0 0.00 0.00 0.00 70 1014.4
20260903023003 62 248 0.0 4.0 0.00 0.00 0.00 69 1014.5
20260903022403 62 248 0.0 3.0 0.00 0.00 0.00 69 1014.6
20260903021803 63 247 1.0 5.0 0.00 0.00 0.00 68 1014.6
20260903021203 63 247 1.0 5.0 0.00 0.00 0.00 67 1014.6
20260903020817 63 248 0.0 4.0 0.00 0.00 0.00 67 1014.6
20260903020004 64 230 0.0 5.0 0.00 0.00 0.00 66 1014.6
20260903015403 64 233 2.0 9.0 0.00 0.00 0.00 65 1014.5
20260903014803 64 236 2.0 9.0 0.00 0.00 0.00 64 1014.6
20260903014203 64 227 1.0 6.0 0.00 0.00 0.00 63 1014.6
20260903013603 64 222 2.0 6.0 0.00 0.00 0.00 63 1014.7
20260903013003 65 232 3.0 10.0 0.00 0.00 0.00 62 1014.7
20260903012403 65 238 3.0 12.0 0.00 0.00 0.00 62 1014.7
20260903011803 65 238 2.0 7.0 0.00 0.00 0.00 62 1014.7
20260903011203 65 233 2.0 9.0 0.00 0.00 0.00 62 1014.7
20260903010603 65 228 2.0 9.0 0.00 0.00 0.00 62 1014.8
20260903010003 65 218 2.0 9.0 0.00 0.00 0.00 61 1014.7